Location: Aalen
(48.8330°N, 10.1000°E)
Time: 18:53:05
(UTC+02:00)

UNISAT 6 - Pass Details

Date: 05 April 2023
Orbit: 599 x 680 km, 97.7° (Epoch: 04 June)

Event Time Altitude Azimuth Distance (km) Brightness Sun altitude
Rises 05:34:28 0° 153° (SSE) 2,939 ? -12.7°
Reaches altitude 10° 05:36:40 10° 149° (SSE) 2,047 ? -12.3°
Maximum altitude 05:41:02 57° 72° (ENE) 783 ? -11.7°
Drops below altitude 10° 05:45:33 10° 354° (N) 2,109 ? -11.0°
Sets 05:47:51 0° 351° (N) 3,036 ? -10.6°
